Weather History for Cocoa Beach, FL

Change the Weather History Date:

Sunday, August 11, 2013

  Actual Average Record
Temperature  
Mean Temperature 84 °F -  
Max Temperature 88 °F 85 °F 96 °F (2006)
Min Temperature 79 °F 75 °F 73 °F (2003)
Cooling Degree Days 18    
Growing Degree Days 34 (Base 50)    
Moisture  
Dew Point 73 °F    
Average Humidity 72    
Maximum Humidity 85    
Minimum Humidity 57    
Precipitation  
Precipitation 0.00 in - - ()
Sea Level Pressure  
Sea Level Pressure 30.15 in    
Wind  
Wind Speed 7 mph (SE)    
Max Wind Speed 12 mph    
Max Gust Speed -    
Visibility 10 miles    
Events      
Averages and records for this station are not official NWS values.
T = Trace of Precipitation, MM = Missing Value Source: NWS Daily Summary

Daily Weather History Graph

Daily Weather History Graph

Search for Another Location

Airport:

Trip Planner

Search our weather history database for the weather conditions in past years. The results will help you decide how hot, cold, wet, or windy it might be!

Date:

Astronomy

Aug. 11, 2013 Rise Set
Actual Time 6:50 AM EDT 8:04 PM EDT
Civil Twilight 6:25 AM EDT 8:29 PM EDT
Nautical Twilight 5:55 AM EDT 8:58 PM EDT
Astronomical Twilight 5:25 AM EDT 9:29 PM EDT
Moon 11:06 AM EDT (8/11) 10:51 PM EDT (8/11)
Length of Visible Light 14h 03m
Length of Day
13h 14m
Waxing Crescent, 22% of the Moon is Illuminated
Aug 11
Waxing Crescent
Aug 14
First Quarter
Aug 20
Full
Aug 28
Last Quarter
Sep 5
New

Hourly Weather History & Observations

Time (EDT) Temp. Heat Index Dew Point Humidity Pressure Visibility Wind Dir Wind Speed Gust Speed Precip Events Conditions
12:58 AM 81.1 °F 87.4 °F 75.6 °F 83% 30.16 in 10.0 mi ESE 8.1 mph - N/A   Clear
1:58 AM 81.3 °F 87.8 °F 75.7 °F 83% 30.16 in 10.0 mi ESE 5.8 mph - N/A   Clear
2:58 AM 81.1 °F 87.4 °F 75.6 °F 83% 30.14 in 10.0 mi SE 8.1 mph - N/A   Partly Cloudy
3:58 AM 80.4 °F 85.6 °F 74.8 °F 83% 30.14 in 10.0 mi SE 4.6 mph - N/A   Clear
4:58 AM 80.1 °F 85.1 °F 75.2 °F 85% 30.14 in 10.0 mi SE 5.8 mph - N/A   Clear
5:58 AM 80.1 °F 85.1 °F 75.2 °F 85% 30.14 in 10.0 mi SE 4.6 mph - N/A   Clear
6:38 AM 80.6 °F 86.2 °F 75.2 °F 84% 30.14 in 9.0 mi SSE 4.6 mph - N/A   Clear
6:58 AM 79.7 °F - 74.8 °F 85% 30.16 in 9.0 mi SSE 4.6 mph - N/A   Clear
7:58 AM 81.3 °F 87.8 °F 75.7 °F 83% 30.17 in 10.0 mi SSE 4.6 mph - N/A   Clear
8:58 AM 83.3 °F 90.8 °F 75.0 °F 76% 30.17 in 10.0 mi SSE 5.8 mph - N/A   Clear
9:33 AM 84.2 °F 92.3 °F 75.2 °F 74% 30.16 in 10.0 mi SE 8.1 mph - N/A   Light Drizzle
9:41 AM 84.2 °F 92.3 °F 75.2 °F 74% 30.17 in 10.0 mi SE 6.9 mph - N/A   Clear
9:58 AM 84.7 °F 92.1 °F 74.1 °F 70% 30.19 in 10.0 mi SE 6.9 mph - 0.00 in   Clear
10:58 AM 85.8 °F 93.0 °F 73.2 °F 66% 30.19 in 10.0 mi SE 8.1 mph - N/A   Clear
11:58 AM 86.5 °F 94.6 °F 74.1 °F 66% 30.19 in 10.0 mi ESE 8.1 mph - N/A   Clear
12:58 PM 87.1 °F 94.1 °F 72.9 °F 62% 30.17 in 10.0 mi ESE 10.4 mph - N/A   Clear
1:58 PM 88.0 °F 95.6 °F 73.0 °F 61% 30.17 in 10.0 mi ESE 10.4 mph - N/A   Clear
2:58 PM 88.2 °F 95.0 °F 72.0 °F 59% 30.17 in 10.0 mi ESE 11.5 mph - N/A   Clear
3:58 PM 87.6 °F 93.1 °F 70.9 °F 57% 30.14 in 10.0 mi ESE 10.4 mph - N/A   Clear
4:58 PM 87.3 °F 92.4 °F 70.3 °F 57% 30.12 in 10.0 mi ESE 10.4 mph - N/A   Clear
5:58 PM 86.4 °F 92.2 °F 71.6 °F 61% 30.12 in 10.0 mi ESE 9.2 mph - N/A   Clear
6:58 PM 84.7 °F 89.7 °F 71.1 °F 63% 30.12 in 10.0 mi ESE 9.2 mph - N/A   Clear
7:58 PM 83.3 °F 87.9 °F 70.7 °F 66% 30.12 in 10.0 mi ESE 10.4 mph - N/A   Clear
8:58 PM 82.8 °F 87.4 °F 71.1 °F 68% 30.14 in 10.0 mi ESE 9.2 mph - N/A   Clear
9:58 PM 81.7 °F 86.0 °F 71.6 °F 71% 30.14 in 10.0 mi ESE 10.4 mph - N/A   Clear
10:58 PM 81.3 °F 85.6 °F 71.6 °F 72% 30.16 in 10.0 mi SE 9.2 mph - N/A   Clear
11:58 PM 81.1 °F 85.2 °F 71.4 °F 72% 30.16 in 10.0 mi SSE 8.1 mph - N/A   Clear